KUIPER-00259

导读 | 豆包AI

KUIPER-00259是法国于2026年2月12日发射的卫星,隶属亚马逊柯伊伯(Project Kuiper)低轨卫星互联网星座,该星座计划由超3200颗低轨卫星组网,旨在为全球未覆盖和网络欠发达地区提供高速普惠宽带服务,对标SpaceX星链。卫星搭载多波束相控阵天线,支持容量按需分配,配备Ka频段载荷,可配合激光星间链路实现10Gbit/s传输,是柯伊伯星座推进商业服务部署的组成卫星。

基本信息
目录编号:
67786
目录名称:
KUIPER-00259
国际标识:
2026-030Y
轨道中心:
EARTH
卫星名称:
KUIPER-00259
卫星全名:
KUIPER-00259
卫星状态:
在轨 (已飞行102 天)
发射日期:
2026-02-12 UTC
国别 :
美国 (US)
星等 :
--
轨道信息
数据来源 国际轨道数据
星历时间: 2026-05-24T12:38:23+0800
1天前
查看轨道信息
半长轴: 7018.992km
偏心率: 0.0001545
轨道倾角: 51.898°
近地点辐角 102.067°
升交点赤经 223.828°
平近点角 258.046°
近地点: 639.77km
远地点: 641.94km
周期: 97.538分钟
每日圈数: 14.763546
详细信息
使用方式:
暂无
2D轨道图
3D轨道图
轨道高度分析图
轨道倾角分析图
轨道综合分析图
查看轨道综合分析图